Regional Weather Roundup
Issued by NWS Sioux Falls, SD

Home | Current Version | Previous Version | Text Only | Print | Product List | Glossary On
Versions: 1 2 3 4 5 6 7 8 9 10 11 12 13 14 15 16 17 18 19 20 21 22 23 24 25 26 27 28 29 30 31 32 33 34 35 36 37 38 39 40 41 42 43 44 45 46 47 48 49 50
000
ASUS43 KFSD 212210
RWRFSD

WEATHER ROUNDUP FOR SE SOUTH DAKOTA/SW MINNESOTA/NW IOWA
NATIONAL WEATHER SERVICE SIOUX FALLS SD
500 PM CDT THU AUG 21 2014

NOTE: "FAIR" INDICATES FEW OR NO CLOUDS BELOW 12,000 FEET WITH NO
SIGNIFICANT WEATHER AND OR OBSTRUCTIONS TO VISIBILITY.


SDZ038>040-050-052>070-212300-
SOUTHEAST SOUTH DAKOTA

CITY           SKY/WX    TMP DP  RH WIND       PRES   REMARKS
CHAMBERLAIN    SUNNY     85  64  47 NW6       29.87S
HURON          SUNNY     87  64  46 NW10      29.82R
MADISON        FAIR      84  70  61 NW10      29.86R
MITCHELL       SUNNY     87  70  56 NW9       29.83S
SIOUX FALLS    PTSUNNY   87  71  58 NW9       29.83R
WINNER         FAIR      89  58  34 N8        29.90R
YANKTON        SUNNY     88  73  62 NW8       29.80S HX  96
$$

MNZ071-072-080-081-089-090-097-098-212300-
SOUTHWEST MINNESOTA

CITY           SKY/WX    TMP DP  RH WIND       PRES   REMARKS
FAIRMONT       MOSUNNY   88  70  55 MISG      29.82R
JACKSON        MOSUNNY   86  72  62 SW8       29.83S
LUVERNE        SUNNY     90  73  58 NW9       29.82R HX  98
MARSHALL       PTSUNNY   86  72  62 N12       29.80R
MONTEVIDEO     PTSUNNY   82  73  74 NE8       29.81R
PIPESTONE      SUNNY     84  70  61 NW13      29.84R
REDWOOD FALLS  PTSUNNY   87  74  64 N8        29.79R HX  95
TRACY          PTSUNNY   85  75  71 N6        29.81R
WINDOM         SUNNY     86  73  66 SW9       29.81R
WORTHINGTON    MOSUNNY   90  27  10 W7        29.84R
$$

IAZ001>003-012>014-020>022-031-032-NEZ013-014-SDZ071-212300-
NORTHWEST IOWA

CITY           SKY/WX    TMP DP  RH WIND       PRES   REMARKS
CHEROKEE       MOSUNNY   87  77  71 SW9       29.82S HX  98
DENISON        SUNNY     86  73  66 SW12G18   29.82S
ESTHERVILLE    SUNNY     86  73  65 SW10      29.82R
LE MARS        SUNNY     88  75  66 W7        29.82S HX  97
ORANGE CITY    SUNNY     88  72  58 W7        29.83S
SHELDON        MOSUNNY   86  77  74 W8        29.82R HX  97
SIOUX CITY     SUNNY     91  75  59 NW5       29.81R HX 101
SPENCER        MOSUNNY   87  74  64 SW14      29.83R HX  95
STORM LAKE     MOSUNNY   84  79  84 SW12      29.85R HX  96
$$

ABBREVIATIONS USED IN REMARKS
   TC - TEMPERATURE IN CELSIUS
  WCI - WIND CHILL INDEX
   HX - HEAT INDEX
  VSB - VISIBILITY



USA.gov is the U.S. government's official web portal to all federal, state and local government web resources and services.